Location: Newark
(41.6478°N, 9.0078°E)
Time: 16:51:58
(UTC+00:00)

Envisat - Visible Passes

Search period start: 18 November 2019 00:00
Search period end: 28 November 2019 00:00
Orbit: 764 x 766 km, 98.1° (Epoch: 18 November)

Date Brightness Start Highest point End Pass type
(mag) Time Alt. Az. Time Alt. Az. Time Alt. Az.
18 Nov 6.1 05:01:19 10° NE 05:04:15 15° E 05:07:10 10° SE visible
18 Nov 4.0 17:53:29 10° S 17:58:22 47° W 18:03:16 10° NNW visible
19 Nov 2.9 17:16:29 10° SSE 17:21:33 79° ENE 17:26:38 10° N visible
19 Nov 6.1 18:59:17 10° WSW 19:01:08 12° W 19:03:01 10° WNW visible
20 Nov 5.4 05:25:43 10° NE 05:29:59 27° E 05:34:14 10° SSE visible
20 Nov 3.5 16:40:20 10° SE 16:44:56 36° ENE 16:49:33 10° N visible
20 Nov 5.1 18:19:44 10° SSW 18:23:59 27° W 18:28:17 10° NW visible
21 Nov 6.3 04:51:03 10° ENE 04:52:50 12° E 04:54:37 10° ESE visible
21 Nov 3.5 17:42:03 10° S 17:47:02 60° W 17:52:05 10° NNW visible
22 Nov 4.3 05:50:44 10° NNE 05:55:38 46° E 06:00:30 10° S visible
22 Nov 3.0 17:05:18 10° SSE 17:10:18 62° ENE 17:15:20 10° N visible
22 Nov 5.9 18:46:46 10° SW 18:49:44 15° W 18:52:42 10° NW visible
23 Nov 5.8 05:14:48 10° NE 05:18:38 21° E 05:22:26 10° SE visible
23 Nov 3.8 16:29:26 10° SE 16:33:45 29° ENE 16:38:04 10° N visible
23 Nov 4.6 18:08:04 10° SSW 18:12:38 34° W 18:17:15 10° NNW visible
24 Nov 3.1 17:30:42 10° S 17:35:45 76° WSW 17:40:52 10° NNW visible
25 Nov 4.8 05:39:37 10° NNE 05:44:19 36° E 05:48:59 10° SSE visible
25 Nov 3.2 16:54:12 10° SE 16:59:04 49° ENE 17:03:58 10° N visible
25 Nov 5.5 18:34:43 10° SW 18:38:21 20° W 18:42:00 10° NW visible
26 Nov 6.0 05:04:01 10° NE 05:07:15 17° E 05:10:27 10° SE visible
26 Nov 4.2 17:56:31 10° S 18:01:19 43° W 18:06:09 10° NNW visible
27 Nov 2.9 17:19:24 10° SSE 17:24:29 86° ENE 17:29:36 10° NNW visible
27 Nov 6.2 19:03:02 10° W 19:04:09 11° W 19:05:16 10° WNW visible
